Location: Park Creek Village Mobile Home Park
(38.2885°N, 122.4714°W)
Time: 10:38:56
(UTC+00:00)

Cosmos 2263 Rocket - Pass Details

Date: 14 December 2019
Orbit: 824 x 848 km, 71.0° (Epoch: 27 January)

Event Time Altitude Azimuth Distance (km) Brightness Sun altitude
Exits shadow 12:26:10 20° 24° (NNE) 1,825 4.1 -33.0°
Drops below altitude 10° 12:27:47 10° 24° (NNE) 2,429 4.8 -32.6°
Sets 12:30:13 0° 24° (NNE) 3,366 5.5 -32.2°
